Вернуться в каталог

CZ-6A DEB

АктивенSSO
NORAD 56647·DEBRIS·🇨🇳 China

Запущен Nov 11, 2022 с Taiyuan Satellite Launch Center

Loading…

Ближайшие Пролёты (ближайшие 24 часа)

TLE

СвежийSource: Space-Track

Эпоха: Sep 13, 2026, 06:00 UTC

1 56647U 22151AFX 26256.25040222  .00001803  00000-0  88281-3 0  9999
2 56647  98.8165 263.0909 0041020  61.7131 298.8174 14.18684337183727

Отслеживайте CZ-6A DEB в реальном времени с AllMySat

Download on the App Store